Regional Weather Roundup
Issued by NWS Wakefield, VA

Home | Current Version | Previous Version | Text Only | Print | Product List | Glossary On
Versions: 1 2 3 4 5 6 7 8 9 10 11 12 13 14 15 16 17 18 19 20 21 22 23 24 25 26 27 28 29 30 31 32 33 34 35 36 37 38 39 40 41 42 43 44 45 46 47 48 49 50
000
ASUS41 KAKQ 281014
RWRAKQ

REGIONAL WEATHER ROUNDUP
NATIONAL WEATHER SERVICE WAKEFIELD VA
600 AM EDT SAT MAR 28 2015

Note: "fair" indicates few or no clouds below 12,000 feet with no
significant weather and/or obstructions to visibility. * = Denotes
station may not report precipitation (e.g., rain,snow,etc.),
thunder or fog.

VAZ042-051-052>054-056-281100-
NORTHERN VIRGINIA

CITY           SKY/WX    TMP DP  RH WIND       PRES   REMARKS
WASH NATIONAL  CLOUDY    36  17  46 NW16G25   29.91R
DULLES         PTCLDY    30  15  53 NW17      29.92R WCI  18
FORT BELVOIR   CLOUDY    33  17  50 NW12G25   29.92R WCI  25
QUANTICO       CLOUDY    34  16  47 N15G25    29.94R WCI  24
FREDERICKSBRG* PTCLDY    34  19  54 NW14G21   29.92R WCI  25
STAFFORD*      MOCLDY    31  18  58 NW10G17   29.96R WCI  23
WARRENTON      CLOUDY    33  25  73 NW10      29.92R WCI  24
CULPEPER*      CLOUDY    34  19  55 N14G20    29.94R WCI  24
MANASSAS*      CLOUDY    32  21  64 N16G23    29.93R WCI  21
LEESBURG*      CLEAR     30  19  64 N14G24    29.94R WCI  20
WINCHESTER     CLEAR     28   9  43 NW15G24   29.94R WCI  17
FRONT ROYAL*   CLOUDY    28  10  47 NW6G20    29.94R
LURAY*         CLOUDY    30  21  69 N13       29.92R WCI  20
$$

VAZ048-049-060>072-079>083-281100-
CENTRAL AND SOUTH CENTRAL VIRGINIA

CITY           SKY/WX    TMP DP  RH WIND       PRES   REMARKS
RICHMOND       CLOUDY    36  21  54 N12       29.90R
CHESTERFIELD*  CLOUDY    36  16  44 N8        29.91R
PETERSBURG*    CLOUDY    38  27  62 N9        29.90R
HANOVER        CLOUDY    34  18  52 NW12      29.92R
TAPPAHANNOCK*  CLOUDY    37  18  47 NW9       29.89R
QUINTON*       CLOUDY    36  23  60 N14G20    29.89R
CHARLOTTSVILLE CLOUDY    32  17  54 NW7       29.91R
GORDONSVILLE*  CLOUDY    32  16  51 N3        29.91R
ORANGE*        CLOUDY    32  19  59 NW6       29.93R
LOUISA*        CLOUDY    34  21  60 N7        29.89R
BUMPASS*       CLOUDY    32  19  57 N3        29.90R
FARMVILLE*     CLOUDY    37  31  78 CALM      29.90R
CREWE*         CLOUDY    34  32  93 MISG      29.90R
FORT PICKETT*  CLOUDY    33  32  98 N6        29.90R
CHASE CITY*    CLOUDY    36  36 100 CALM      29.91R
CLARKSVILLE*   CLOUDY    36  32  87 CALM      29.90R
SOUTH HILL*    CLOUDY    35  32  90 CALM      29.95R
LAWRENCEVILLE* CLOUDY    36  35  95 CALM      29.89R
EMPORIA*       DRIZZLE   36  34  93 W5        29.91R
$$

VAZ088>098-281100-
SOUTHEAST VIRGINIA

CITY           SKY/WX    TMP DP  RH WIND       PRES   REMARKS
NORFOLK        MOCLDY    40  29  64 N15G25    29.83R
VIRGINIA BEACH MOCLDY    42  30  62 N20G25    29.82R
NORFOLK NAVAL  CLOUDY    43  28  55 N16G30    29.85R
WEST POINT*    CLOUDY    38  25  58 NW7       29.90R
SALUDA*        CLOUDY    37  24  60 N16G23    29.86R
NEWPORT NEWS   NOT AVBL
LANGLEY AFB    CLOUDY    38  29  68 N13G25    29.84R
FORT EUSTIS    CLOUDY    39  29  66 N13G21    29.84R
WILLIAMSBURG*  CLOUDY    39  34  81 N10G20    29.87R
HR EXEC AP*    CLOUDY    39  28  65 N8G22     29.86R
FRANKLIN*      CLOUDY    38  31  77 NW7       29.88R
WAKEFIELD      CLOUDY    38  29  70 NW8       29.88R
$$

VAZ020-022-025-037-045-281100-
WEST CENTRAL AND SOUTHWEST VIRGINIA

CITY           SKY/WX    TMP DP  RH WIND       PRES   REMARKS
STAUNTON*      CLOUDY    29   9  43 NW13G23   29.92R WCI  19
WAYNESBORO*    CLOUDY    28  11  49 NW14G21   29.88R WCI  16
HOT SPRINGS VA CLOUDY    15   8  72 NW13G20   29.75R WCI   2
LYNCHBURG      CLOUDY    32  15  49 W12G17    29.92R WCI  23
DANVILLE       CLOUDY    37  22  54 N8        29.93R
SOUTH BOSTON*  CLOUDY    36  21  55 NW14G21   29.92R
MARTINSVILLE   MOCLDY    32  20  61 N9G18     29.96R
ROANOKE        MOCLDY    28   8  43 W16       29.96R WCI  16
BLACKSBURG     CLOUDY    23   9  55 NW15G24   29.93R WCI  10
DUBLIN*        CLOUDY    26  11  54 NW12G25   29.93R WCI  15
MARION*        LGT SNOW  24  16  71 W10G23    29.93R WCI  13
HILLSVILLE*    CLOUDY    23  14  68 NW12G23   29.86R WCI  12
RICHLANDS*     CLOUDY    21  12  67 N13G20    29.93R WCI   9
WISE*          CLOUDY    23  12  63 NW7       29.96R
ABINGDON*      CLOUDY    27  18  71 N10G16    29.97R WCI  17
$$

MDZ021>025-VAZ099-100-281100-
SOUTHERN MARYLAND AND THE DELMARVA PENINSULA

CITY           SKY/WX    TMP DP  RH WIND       PRES   REMARKS
PATUXENT RIVER CLOUDY    36  20  52 NW18G24   29.86R
BAY BRIDGE APT   N/A     36  19  51 NW16G24   29.87R
LEONARDTOWN    CLOUDY    34  23  64 NW7       29.88R
DOVER          CLOUDY    37  31  77 NW14      29.81R
GEORGETOWN     CLOUDY    37  29  72 NW6       29.81R
EASTON         MOCLDY    37  25  61 N10G21    29.88R
CAMBRIDGE      MOCLDY    37  23  56 NW17G23   29.84R
SALISBURY      CLOUDY    36  26  67 NW16      29.81R
OCEAN CITY     CLOUDY    37  29  72 NW13      29.79R
WALLOPS ISLAND MOCLDY    37  28  70 N14G21    29.81R
ACCOMACK*      MOCLDY    37  27  65 N17G28    29.82R
$$

NCZ012>017-030>032-281100-
NORTH CENTRAL AND EASTERN NORTH CAROLINA

CITY           SKY/WX    TMP DP  RH WIND       PRES   REMARKS
ROANOKE RAPIDS DRIZZLE   36  34  93 NW5       29.91R
RALEIGH        PTCLDY    38  28  67 NW5       29.91R
ELIZABETH CITY PTCLDY    38  36  92 W10       29.84R
AHOSKIE*       CLOUDY    38  35  88 NW3       29.89R
EDENTON*       CLOUDY    40  35  84 N12G18    29.85R
CURRITUCK*     PTCLDY    39  36  86 W3        29.82R
KILL DEVIL HLS MOCLDY    42  38  87 NW10G18   29.80R
MANTEO         CLOUDY    42  37  82 N10G20    29.82R
CAPE HATTERAS  LGT RAIN  42  35  76 NW14G22   29.82R
TARBORO*       DRIZZLE   39  35  87 NW12      29.92R
GOLDSBORO      MIX PCPN  40  40  99 N13G21    29.90R
WASHINGTON     CLOUDY    40  37  89 NW5       29.88R
GREENVILLE     PTCLDY    39  36  87 NW9       29.92R
NEW BERN       CLOUDY    41  37  86 NW8       29.90R
WILMINGTON     LGT RAIN  44  39  82 NW12      29.90R
$$

VAZ048-281100-
ELSEWHERE

CITY           SKY/WX    TMP DP  RH WIND       PRES   REMARKS
HARRISBURG PA  LGT SNOW  30  25  81 NW14G22   29.88R WCI  19
BALTIMORE      MOCLDY    33  17  51 NW13      29.87R WCI  24
ANNAPOLIS      CLOUDY    36  20  52 NW13      29.87R
ANDREWS AFB    PTCLDY    33  17  52 NW18      29.88R WCI  22
PHILADELPHIA   CLOUDY    36  21  54 N17G28    29.82R
HENDERSON NC   MOCLDY    35  33  93 NW5       29.91R
GREENSBORO     PTCLDY    34  20  56 NW7       29.91R
ROCKY MOUNT    LGT RAIN  37  34  89 N12       29.93R
$$

VAZ100-281100-
MARINE

STATION/POSITION TIME  TEMP    WIND        PRES    WAVE   SWELL
                       AIR SEA DIR/SP/G            HT/PER HT/PER
                 (UTC) (F)     (DEG/KT/KT) (MB)    (FT/S) (FT/S)
BRANDYWINE LGT   0900   39 40  350/ 25/ 28 1007.7F
CAPE MAY NJ      0900   39 43  350/  1/  6 1007.2F
LEWES DE         0900   40 43  340/ 23/ 26 1007.7F
15NM E FENWICK I 0950   40 40              1007.4R   4/10
OCEAN-CITY-INLET 0900   40 39  350/ 14/ 17 1007.1S
WACHAPREAGUE VA  0900   40 47  350/  9/ 18 1008.2R
THOMAS POINT MD  1000                        N/A
COVE POINT MD    0900   36     340/ 26/ 29 1010.1R
SOLOMONS ISLAND  0900      43                N/A
BISHOPS HEAD MD  0900   38 44  330/ 14/ 21 1009.0R
PINEY POINT MD   0912          350/ 20/ 22   N/A
CAMBRIDGE MD     0900   39 45  330/ 16/ 20 1009.4R
LEWISETTA VA     0900   38 45              1010.5R
RAPPAHANNOCK LGT 0900          330/ 29/ 35 1009.1R
STINGRAY PT      1000   38 44  340/ 21/ 25   N/A     2/ 3
YORK RVR RNG VA  0900   41     340/ 21/ 26 1009.0R
YORKTOWN VA      0900   40 47  330/ 18/ 24 1009.7R
DOMINION TERM VA 0900   41     350/ 15/ 20 1009.9R
KIPTOPEKE VA     0900      49  360/ 19/ 29   N/A
CHES BAY BRIDGE  0900   42 43  330/ 20/ 26 1008.9R
CAPE HENRY VA    0900   42     330/ 24/ 29 1007.6R
CHESAPEAKE LGHT  0900   42     340/ 26/ 29 1008.5R
WILLOUBY STN VA  0900   41     330/ 19/ 22 1010.1R
S CRANEY ISL VA  0900          340/ 12/ 16 1009.6R
CAPE HENRY BUOY  0928      40                N/A     5/ 4   2/11
1ST LANDING BUOY 1000   41     330/ 23/ 29 1009.4R   4/ 4
OFFSHORE WE BUOY 0911      41                N/A     6/11   5/11
64NM E OF VA BCH 0950   44 56  360/ 25/ 31 1006.4R   9/ 8   3/11
DUCK PIER NC     0900   42 41  310/ 15/ 18 1007.3R
44056 DUCK FRF   0911      42                N/A     5/ 7   2/11
OREGON INLET NC  0900   42 45  300/ 13/ 19 1008.2R
HATTERAS NC      0900   44 54  330/ 22/ 25 1008.7R
CAPE LOOKOUT NC  1000   43     340/ 15/ 18 1011.2R
$$


USA.gov is the U.S. government's official web portal to all federal, state and local government web resources and services.